Date High Temp Low Temp Barometric Pressure Relative Humidity AM Temp Moisture Snow Notes
4/12/19 33 22 29.90 73% 23 .29″ 2.25″
4/11/19 29 24 29.82 86% 27 .42″ 3″
4/10/19 38 23 30.16 53% 24
4/9/19 30 22 30.12 73% 24 Trace Trace
4/8/19 40 36 29.94 98% 36 .51″
4/7/19 40 36 29.94 98% 36
4/6/19 45 34 30.00 95% 38
4/5/19 39 30 30.12 87% 34
4/4/19 34 7 30.06 80% 30 Trace Trace
4/3/19 36 9 30.24 46% 9
4/2/19 35 19 30.00 56% 17 Trace Trace
4/1/19 37 27 29.98 58% 28
3/31/19 35 19 30.08 37% 27 .04″ .5″
3/30/19 24 12 30.14 60% 19
3/29/19 37 11 30.10 47% 12 .11″ 1.25″
3/28/19 39 22 30.10 46% 23
3/27/19 48 33 30.02 71% 34
3/26/19 41 15 30.06 58% 37
3/25/19 35 13 30.28 53% 15
3/24/19 34 12 30.26 48% 13
3/23/19 49 26 30.22 37% 27
3/22/19 37 20 30.16 55% 26
3/21/19 45 24 30.14 43% 24
3/20/19 37 31 30.02 88% 30
3/19/19 44 30 30.00 73% 33
3/18/19 37 22 30.16 51% 30
3/17/19 34 7 30.16 72% 21
3/16/19 31 6 30.16 51% 7
3/15/19 26 19 30.12 61% 19 .12″ .25″ Rain/Snow Mix
3/14/19 38 22 29.90 72% 23 .43″
3/13/19 37 33 29.74 98% 36 .76″ First rain
3/12/19 39 24 29.94 95% 34 Trace Trace
3/11/19 26 8 30.06 76% 24 Trace Trace
3/10/19 34 12 30.15 64% 12 .25″ 2.5″
3/9/19 36 19 30.06 78% 26
3/8/19 29 12 30.08 63% 15
3/7/19 20 -6 30.10 42% 12
3/6/19 13 -8 30.20 55% -7
3/5/19 9 -11 30.04 55% -5
3/4/19 7 -13 30.00 55% -2 Trace Trace
3/3/19 0 -14 30.00 55% -13
3/2/19 10 -15 30.16 55% -14
3/1/19 18 -3 30.18 55% 0 Trace Trace
2/28/19 20 -1 30.12 49% 0 Trace Trace
2/27/19 13 -2 30.04 64% 5
2/26/19 6 -6 30.19 64% 6 .25″ 2″
2/25/19 1 -16 30.34 64% -6
2/24/19 24 -14 30.16 64% -14
2/23/19 26 22 29.74 81% 24 .32″ 3″
2/22/19 28 20 30.14 78% 22 Trace Trace
2/21/19 27 19 30.20 71% 22
2/20/19 21 -1 30.00 71% 19 .34″ 4″
2/19/19 20 -15 30.10 45% -1
2/18/19 12 -15 30.30 46% -15
2/17/19 17 -14 30.24 46% -13
2/16/19 18 -12 30.12 50% -1
2/15/19 14 -12 30.08 53% -12
2/14/19 23 3 29.90 63% 5 .17″ 1.75″
2/13/19 22 5 29.80 76% 21
2/12/19 19 5 30.00 66% 5 .08″ 1″
2/11/19 19 1 30.04 74% 18 .27″ 3″
2/10/19 12 -11 30.40 69% 0
2/9/19 5 -18 30.44 69% -11
2/8/19 1 -18 30.44 69% -18
2/7/19 4 -9 30.06 69% .14″ 1″
2/6/19 13 -5 30.06 69% 3 .26″ 3.5″
2/5/19 10 0 30.00 69% 6 .12″ 2″
2/4/19 4 -20 30.20 69% -5 .42″ 4.25″
2/3/19 20 3 29.94 69% 3 Trace Trace
2/2/19 29 -8 29.96 81% 18
2/1/19 11 -30 30.08 56% -8 .06″ 1″
1/31/19 -8 -29 30.06 56% -30
1/30/19 -16 -30 30.00 56% -27
1/29/19 -13 -27 29.92 56% -13
1/28/19 4 -12 30.00 56% -4
1/27/19 7 -11 30.00 56% -21
1/26/19 -3 -28 30.02 56% -22
1/25/19 -11 -22 29.98 56% -21
1/24/19 2 -21 29.95 56% 2
1/23/19 16 2 29.96 60% 12 .08″ 1″
1/22/19 17 9 30.06 68% 15 .02″ .50″
1/21/19 15 -2 30.28 58% -2 .26″ 4″
1/20/19 -3 -25 30.29 58% -22 Trace Trace
1/19/19 -5 -23 30.25 58% -23
1/18/19 10 -26 30.20 58% -11
1/17/19 10 -13 30.10 58% 3
1/16/19 7 -8 30.19 58% -3
1/15/19 22 -7 29.94 81% 22 .09″ .25″
1/14/19 25 7 30.17 80% 24
1/13/19 27 23 30.30 82% 23 .05″ .60″
1/12/19 23 18 30.36 76% 18
1/11/19 21 16 30.20 81% 20 Trace Trace
1/10/19 20 -2 30.30 58% -2 .09″ 1.25″
1/9/19 17 -5 30.10 58% 5
1/8/19 17 5 30.00 60% 8 .08″ .50″
1/7/19 33 16 29.80 62% 17 Trace Trace
1/6/19 31 10 29.80 75% 20 Trace Trace
1/5/19 33 0 29.80 98% 29 .40″ 4.5″
1/4/19 33 14 29.90 94% 33
1/3/19 32 10 29.92 94% 21
1/2/19 12 -6 29.98 86% 4
1/1/19 2 -15 29.98 69% 0